Location: Newark
(40.9833°N, 0.0333°W)
Time: 15:47:32
(UTC+00:00)

A-11 Canister half - Visible Passes

Search period start: 21 October 2020 00:00
Search period end: 31 October 2020 00:00
Orbit: 1515 x 1685 km, 47.2° (Epoch: 20 October)

Date Brightness Start Highest point End Pass type
(mag) Time Alt. Az. Time Alt. Az. Time Alt. Az.
21 Oct 9.8 01:59:04 41° ENE 01:59:04 41° ENE 02:04:56 10° E visible
21 Oct 8.9 03:57:18 43° WNW 04:01:02 81° SSW 04:10:21 10° SE visible
21 Oct 10.7 19:12:30 10° SSE 19:14:08 13° SSE 19:14:08 13° SSE visible
21 Oct 11.0 21:11:47 10° SW 21:12:23 12° SW 21:12:23 12° SW visible
22 Oct 10.3 01:37:49 30° ENE 01:37:49 30° ENE 01:41:59 10° E visible
22 Oct 8.8 03:36:03 61° WNW 03:38:07 84° SSW 03:47:29 10° ESE visible
22 Oct 9.8 05:34:17 10° WNW 05:42:06 31° SW 05:49:48 10° S visible
22 Oct 10.5 18:50:17 10° SSE 18:53:15 14° SE 18:53:15 14° SE visible
22 Oct 10.6 20:48:56 10° SSW 20:51:31 20° SSW 20:51:31 20° SSW visible
23 Oct 10.7 01:16:39 20° E 01:16:39 20° E 01:19:01 10° E visible
23 Oct 8.8 03:14:53 85° W 03:15:12 87° SSW 03:24:35 10° ESE visible
23 Oct 9.7 05:13:07 16° W 05:19:17 33° SW 05:27:11 10° S visible
23 Oct 10.5 18:28:11 10° SSE 18:32:22 13° ESE 18:32:22 13° ESE visible
23 Oct 10.1 20:26:07 10° SSW 20:30:37 29° SSW 20:30:37 29° SSW visible
24 Oct 11.1 00:55:32 12° E 00:55:32 12° E 00:56:03 10° E visible
24 Oct 9.0 02:53:47 69° ESE 02:53:47 69° ESE 03:01:42 10° ESE visible
24 Oct 9.5 04:52:01 24° W 04:56:26 35° SW 05:04:33 10° SSE visible
24 Oct 10.5 18:06:18 10° SE 18:09:37 12° ESE 18:11:25 11° ESE visible
24 Oct 9.7 20:03:19 10° SSW 20:09:40 38° S 20:09:40 38° S visible
24 Oct 11.2 22:07:30 10° WSW 22:07:56 12° WSW 22:07:56 12° WSW visible
25 Oct 9.6 02:32:44 47° ESE 02:32:44 47° ESE 02:38:48 10° ESE visible
25 Oct 9.4 04:30:59 32° WSW 04:33:36 38° SW 04:41:54 10° SSE visible
25 Oct 10.6 17:44:58 10° SE 17:46:48 11° ESE 17:48:38 10° ESE visible
25 Oct 9.4 19:40:31 10° SSW 19:48:40 44° SSE 19:48:40 44° SSE visible
25 Oct 10.7 21:44:30 10° WSW 21:46:56 20° WSW 21:46:56 20° WSW visible
26 Oct 10.2 02:11:45 31° ESE 02:11:45 31° ESE 02:15:53 10° ESE visible
26 Oct 9.3 04:10:00 40° WSW 04:10:46 40° SW 04:19:13 10° SSE visible
26 Oct 9.4 19:17:44 10° SSW 19:27:05 44° SE 19:27:36 43° SE visible
26 Oct 10.3 21:21:31 10° WSW 21:25:51 30° WSW 21:25:51 30° WSW visible
27 Oct 10.7 01:50:49 19° ESE 01:50:49 19° ESE 01:52:58 10° ESE visible
27 Oct 9.4 03:49:05 41° SSW 03:49:05 41° SSW 03:56:31 10° SSE visible
27 Oct 9.5 18:55:00 10° SSW 19:04:12 41° SE 19:06:28 37° ESE visible
27 Oct 9.8 20:58:32 10° WSW 21:04:43 44° WSW 21:04:43 44° WSW visible
28 Oct 11.1 01:29:55 11° ESE 01:29:55 11° ESE 01:30:03 10° ESE visible
28 Oct 9.7 03:28:11 35° S 03:28:11 35° S 03:33:48 10° SSE visible
28 Oct 9.6 18:32:15 10° SSW 18:41:19 39° SE 18:45:15 29° E visible
28 Oct 9.3 20:35:33 10° WSW 20:43:29 61° WSW 20:43:29 61° WSW visible
28 Oct 11.3 22:41:38 10° W 22:41:42 10° W 22:41:42 10° W visible
29 Oct 10.1 03:07:18 26° SSE 03:07:18 26° SSE 03:11:04 10° SSE visible
29 Oct 10.5 05:05:33 11° WSW 05:05:33 11° WSW 05:07:30 10° SW visible
29 Oct 9.7 18:09:32 10° SSW 18:18:27 36° SE 18:23:58 22° E visible
29 Oct 9.0 20:12:35 10° WSW 20:22:11 82° WSW 20:22:11 82° WSW visible
29 Oct 11.0 22:18:35 10° W 22:20:24 17° W 22:20:24 17° W visible
30 Oct 10.6 02:46:24 18° SSE 02:46:24 18° SSE 02:48:19 10° SSE visible
30 Oct 10.6 04:44:40 11° SW 04:44:40 11° SW 04:45:56 10° SW visible
30 Oct 9.8 17:46:51 10° SSW 17:55:34 34° SE 18:02:36 15° ENE visible
30 Oct 8.9 19:49:38 10° WSW 19:59:51 86° SSE 20:00:49 76° ENE visible
30 Oct 10.6 21:55:33 10° W 21:59:02 25° W 21:59:02 25° W visible
